Weather History for Kalispell, MT

Change the Weather History Date:

Thursday, November 22, 2012

  Actual Average Record
Temperature  
Mean Temperature 33 °F 30 °F  
Max Temperature 41 °F 37 °F 59 °F (1917)
Min Temperature 24 °F 23 °F -15 °F (1985)
Degree Days  
Heating Degree Days 32 35  
Month to date heating degree days 628 700  
Since 1 July heating degree days 1711 1908  
Cooling Degree Days 0 0  
Month to date cooling degree days 0 0  
Year to date cooling degree days 192 147  
Moisture  
Dew Point 24 °F    
Average Humidity 70    
Maximum Humidity 92    
Minimum Humidity 48    
Precipitation  
Precipitation 0.00 in 0.04 in 1.00 in (1926)
Month to date precipitation 1.14 1.04  
Year to date precipitation 18.75 15.04  
Snow  
Snow 0.00 in - - ()
Month to date snowfall 0.3  
Year to date snowfall 27.4  
Since 1 July snowfall 2.3  
Snow Depth 0.00 in    
Sea Level Pressure  
Sea Level Pressure 30.39 in    
Wind  
Wind Speed 5 mph (SSW)    
Max Wind Speed 16 mph    
Max Gust Speed 18 mph    
Visibility 10 miles    
Events      
T = Trace of Precipitation, MM = Missing Value Source: NWS Daily Summary

Daily Weather History Graph

Daily Weather History Graph

Search for Another Location

Airport:

Trip Planner

Search our weather history database for the weather conditions in past years. The results will help you decide how hot, cold, wet, or windy it might be!

Date:

Astronomy

Nov. 22, 2012 Rise Set
Actual Time 7:55 AM MST 4:50 PM MST
Civil Twilight 7:20 AM MST 5:25 PM MST
Nautical Twilight 6:42 AM MST 6:04 PM MST
Astronomical Twilight 6:04 AM MST 6:41 PM MST
Moon 1:59 PM MST 1:55 AM MST
Length of Visible Light 10h 05m
Length of Day
8h 55m
Waxing Gibbous, 72% of the Moon is Illuminated
Nov 22
Waxing Gibbous
Nov 28
Full
Dec 6
Last Quarter
Dec 13
New
Dec 19
First Quarter

Hourly Weather History & Observations

Time (MST) Temp. Windchill Dew Point Humidity Pressure Visibility Wind Dir Wind Speed Gust Speed Precip Events Conditions
12:55 AM 36.0 °F 29.0 °F 26.1 °F 67% 30.06 in 10.0 mi South 9.2 mph - N/A   Overcast
1:55 AM 36.0 °F 30.3 °F 26.1 °F 67% 30.09 in 10.0 mi SSW 6.9 mph - N/A   Overcast
2:55 AM 35.1 °F 30.1 °F 25.0 °F 67% 30.14 in 10.0 mi South 5.8 mph - N/A   Overcast
3:55 AM 35.1 °F 28.6 °F 26.1 °F 70% 30.19 in 10.0 mi South 8.1 mph - N/A   Overcast
4:55 AM 36.0 °F 29.0 °F 25.0 °F 64% 30.23 in 10.0 mi South 9.2 mph - N/A   Overcast
5:55 AM 35.1 °F 28.6 °F 25.0 °F 67% 30.26 in 10.0 mi SSW 8.1 mph - N/A   Overcast
6:55 AM 34.0 °F 28.8 °F 26.1 °F 73% 30.30 in 10.0 mi South 5.8 mph - N/A   Overcast
7:55 AM 34.0 °F 27.2 °F 24.1 °F 67% 30.34 in 10.0 mi SSW 8.1 mph - N/A   Mostly Cloudy
8:55 AM 34.0 °F 26.6 °F 25.0 °F 70% 30.39 in 10.0 mi SSW 9.2 mph - N/A   Overcast
9:55 AM 36.0 °F 29.6 °F 24.1 °F 62% 30.43 in 10.0 mi SSW 8.1 mph - N/A   Overcast
10:55 AM 37.0 °F 32.4 °F 25.0 °F 62% 30.44 in 10.0 mi SSW 5.8 mph - N/A   Mostly Cloudy
11:55 AM 39.0 °F 33.4 °F 24.1 °F 55% 30.44 in 10.0 mi WSW 8.1 mph - N/A   Mostly Cloudy
12:55 PM 39.0 °F 34.8 °F 23.0 °F 53% 30.45 in 10.0 mi WSW 5.8 mph - N/A   Overcast
1:55 PM 39.0 °F 34.8 °F 21.9 °F 50% 30.47 in 10.0 mi West 5.8 mph - N/A   Overcast
2:55 PM 39.0 °F 34.8 °F 21.9 °F 50% 30.48 in 10.0 mi WSW 5.8 mph - N/A   Mostly Cloudy
3:55 PM 39.0 °F 34.8 °F 23.0 °F 53% 30.50 in 10.0 mi SW 5.8 mph - N/A   Mostly Cloudy
4:55 PM 35.1 °F - 24.1 °F 64% 30.52 in 10.0 mi Calm Calm - N/A   Clear
5:55 PM 33.1 °F 30.0 °F 21.9 °F 64% 30.51 in 10.0 mi SE 3.5 mph - N/A   Clear
6:55 PM 28.9 °F - 21.9 °F 75% 30.52 in 10.0 mi Calm Calm - N/A   Clear
7:55 PM 27.0 °F - 23.0 °F 85% 30.54 in 10.0 mi Calm Calm - N/A   Clear
8:55 PM 26.1 °F 21.9 °F 23.0 °F 88% 30.53 in 10.0 mi WNW 3.5 mph - N/A   Clear
9:55 PM 24.1 °F - 21.9 °F 91% 30.53 in 10.0 mi Calm Calm - N/A   Partly Cloudy
10:55 PM 27.0 °F - 24.1 °F 89% 30.52 in 10.0 mi Calm Calm - N/A   Overcast
11:55 PM 26.1 °F - 24.1 °F 92% 30.50 in 10.0 mi Calm Calm - N/A   Partly Cloudy